Change the Weather History Date:

Wednesday, October 17, 2012

  Actual Average (KDET) Record (KDET)
Temperature  
Mean Temperature 61 °F -  
Max Temperature 71 °F 58 °F 84 °F (1963)
Min Temperature 51 °F 44 °F 31 °F (1972)
Degree Days  
Heating Degree Days 4    
Growing Degree Days 11 (Base 50)    
Moisture  
Dew Point 47 °F    
Average Humidity 61    
Maximum Humidity 92    
Minimum Humidity 37    
Precipitation  
Precipitation 0.00 in - - ()
Sea Level Pressure  
Sea Level Pressure 29.71 in    
Wind  
Wind Speed 7 mph (South)    
Max Wind Speed 20 mph    
Max Gust Speed 26 mph    
Visibility 10 miles    
Events Rain    
Averages and records for this station are not official NWS values.
T = Trace of Precipitation, MM = Missing Value Source: NWS Daily Summary

Daily Weather History Graph

Daily Weather History Graph

Search for Another Location

Airport or City:

Trip Planner

Search our weather history database for the weather conditions in past years. The results will help you decide how hot, cold, wet, or windy it might be!

Date:

Astronomy

Oct. 17, 2012 Rise Set
Actual Time 7:48 AM EDT 6:46 PM EDT
Civil Twilight 7:20 AM EDT 7:15 PM EDT
Nautical Twilight 6:47 AM EDT 7:47 PM EDT
Astronomical Twilight 6:14 AM EDT 8:20 PM EDT
Moon 10:25 AM EDT (10/17) 8:17 PM EDT (10/17)
Length of Visible Light 11h 54m
Length of Day
10h 57m
Waxing Crescent, 7% of the Moon is Illuminated
Oct 17
Waxing Crescent
Oct 21
First Quarter
Oct 29
Full
Nov 6
Last Quarter
Nov 13
New

Hourly Weather History & Observations

Time (EDT) Temp. Dew Point Humidity Pressure Visibility Wind Dir Wind Speed Gust Speed Precip Events Conditions
12:15 AM 51.3 °F 45.0 °F 79% 29.81 in 10.0 mi Calm Calm - N/A   Overcast
12:35 AM 51.8 °F 45.0 °F 77% 29.80 in 10.0 mi Calm Calm - N/A   Overcast
12:54 AM 52.2 °F 44.8 °F 76% 29.79 in 10.0 mi SSE 3.5 mph - N/A   Overcast
1:15 AM 52.7 °F 44.6 °F 74% 29.79 in 10.0 mi SSE 3.5 mph - N/A   Overcast
1:34 AM 53.8 °F 43.7 °F 69% 29.78 in 10.0 mi SSE 6.9 mph - N/A   Overcast
1:55 AM 54.5 °F 43.5 °F 66% 29.78 in 10.0 mi South 4.6 mph - N/A   Overcast
2:15 AM 55.2 °F 43.2 °F 64% 29.78 in 10.0 mi South 10.4 mph 17.3 mph N/A Rain Rain
2:35 AM 53.6 °F 45.1 °F 73% 29.78 in 7.0 mi South 9.2 mph - N/A Rain Rain
2:55 AM 52.3 °F 46.4 °F 80% 29.78 in 10.0 mi South 4.6 mph - N/A   Overcast
3:15 AM 51.8 °F 46.9 °F 83% 29.77 in 10.0 mi SSE 4.6 mph - N/A Rain Light Rain
3:35 AM 51.8 °F 47.3 °F 85% 29.76 in 10.0 mi ESE 4.6 mph - N/A   Overcast
3:54 AM 52.0 °F 46.6 °F 82% 29.75 in 10.0 mi SSE 4.6 mph - N/A   Overcast
4:15 AM 52.2 °F 46.8 °F 82% 29.75 in 10.0 mi SSE 3.5 mph - N/A   Overcast
4:35 AM 53.2 °F 46.6 °F 78% 29.75 in 10.0 mi South 6.9 mph - N/A   Overcast
4:55 AM 54.1 °F 46.0 °F 74% 29.75 in 10.0 mi South 5.8 mph - N/A   Overcast
5:15 AM 53.8 °F 46.6 °F 77% 29.75 in 10.0 mi South 5.8 mph - N/A Rain Light Rain
5:34 AM 53.4 °F 47.3 °F 80% 29.75 in 10.0 mi South 3.5 mph - N/A Rain Rain
5:55 AM 53.6 °F 47.3 °F 79% 29.74 in 10.0 mi South 5.8 mph - N/A Rain Light Rain
6:15 AM 54.3 °F 47.1 °F 77% 29.74 in 10.0 mi South 4.6 mph - N/A   Light Drizzle
6:34 AM 54.5 °F 47.1 °F 76% 29.74 in 10.0 mi South 4.6 mph - N/A   Mostly Cloudy
6:55 AM 54.3 °F 47.3 °F 77% 29.73 in 10.0 mi South 4.6 mph - N/A   Overcast
7:14 AM 54.7 °F 47.5 °F 77% 29.73 in 10.0 mi South 5.8 mph - N/A   Mostly Cloudy
7:35 AM 55.6 °F 47.7 °F 75% 29.74 in 10.0 mi SSW 5.8 mph - N/A   Scattered Clouds
7:54 AM 55.9 °F 48.2 °F 75% 29.73 in 10.0 mi SSW 6.9 mph - N/A   Clear
8:15 AM 55.6 °F 48.7 °F 78% 29.74 in 10.0 mi South 5.8 mph - N/A   Clear
8:35 AM 55.8 °F 48.9 °F 78% 29.74 in 10.0 mi South 5.8 mph - N/A   Clear
8:54 AM 56.3 °F 48.7 °F 76% 29.74 in 7.0 mi South 6.9 mph - N/A   Clear
9:15 AM 56.8 °F 48.4 °F 73% 29.74 in 7.0 mi South 8.1 mph - N/A   Clear
9:35 AM 57.4 °F 48.2 °F 71% 29.74 in 10.0 mi South 8.1 mph - N/A   Scattered Clouds
9:54 AM 58.5 °F 48.4 °F 69% 29.75 in 10.0 mi South 10.4 mph - N/A   Mostly Cloudy
10:15 AM 58.6 °F 48.4 °F 69% 29.74 in 10.0 mi South 8.1 mph - N/A   Mostly Cloudy
10:35 AM 59.7 °F 48.4 °F 66% 29.75 in 10.0 mi SSW 12.7 mph - N/A   Mostly Cloudy
10:54 AM 60.8 °F 48.0 °F 63% 29.75 in 10.0 mi South 12.7 mph 16.1 mph N/A   Overcast
11:15 AM 61.3 °F 48.0 °F 62% 29.75 in 10.0 mi South 11.5 mph 16.1 mph N/A   Mostly Cloudy
11:34 AM 63.1 °F 48.2 °F 58% 29.73 in 10.0 mi South 9.2 mph 17.3 mph N/A   Mostly Cloudy
11:55 AM 65.3 °F 47.1 °F 52% 29.73 in 10.0 mi South 13.8 mph 17.3 mph N/A   Scattered Clouds
12:15 PM 67.1 °F 46.4 °F 47% 29.72 in 10.0 mi SSW 10.4 mph 17.3 mph N/A   Scattered Clouds
12:34 PM 68.0 °F 44.6 °F 43% 29.71 in 10.0 mi SSW 13.8 mph 21.9 mph N/A   Clear
12:55 PM 69.1 °F 44.4 °F 41% 29.70 in 10.0 mi South 12.7 mph 23.0 mph N/A   Clear
1:15 PM 69.1 °F 45.0 °F 42% 29.69 in 10.0 mi SSE 16.1 mph 21.9 mph N/A   Clear
1:34 PM 69.4 °F 45.5 °F 42% 29.69 in 10.0 mi SSE 11.5 mph 20.7 mph N/A   Clear
1:55 PM 69.6 °F 45.7 °F 42% 29.68 in 10.0 mi South 11.5 mph 19.6 mph N/A   Clear
2:14 PM 70.3 °F 45.0 °F 40% 29.68 in 10.0 mi South 11.5 mph 24.2 mph N/A   Clear
2:35 PM 70.7 °F 44.2 °F 39% 29.67 in 10.0 mi South 13.8 mph 24.2 mph N/A   Clear
2:55 PM 70.9 °F 44.8 °F 39% 29.67 in 10.0 mi South 13.8 mph 24.2 mph N/A   Clear
3:15 PM 71.1 °F 44.8 °F 39% 29.67 in 10.0 mi South 11.5 mph 24.2 mph N/A   Clear
3:35 PM 71.6 °F 44.4 °F 38% 29.66 in 10.0 mi SSE 16.1 mph 23.0 mph N/A   Clear
3:54 PM 71.1 °F 44.1 °F 38% 29.66 in 10.0 mi SSE 13.8 mph 23.0 mph N/A   Clear
4:15 PM 71.1 °F 43.9 °F 38% 29.65 in 10.0 mi SSE 17.3 mph 23.0 mph N/A   Clear
4:34 PM 71.2 °F 43.5 °F 37% 29.65 in 10.0 mi South 12.7 mph 24.2 mph N/A   Clear
4:55 PM 70.2 °F 43.3 °F 38% 29.65 in 10.0 mi South 12.7 mph 24.2 mph N/A   Clear
5:15 PM 70.0 °F 43.7 °F 39% 29.65 in 10.0 mi South 16.1 mph 20.7 mph N/A   Clear
5:34 PM 70.0 °F 43.9 °F 39% 29.64 in 10.0 mi South 12.7 mph 18.4 mph N/A   Clear
5:55 PM 69.1 °F 43.9 °F 40% 29.63 in 10.0 mi SSE 9.2 mph 20.7 mph N/A   Clear
6:15 PM 68.9 °F 43.9 °F 40% 29.63 in 10.0 mi SSE 12.7 mph 21.9 mph N/A   Clear
6:34 PM 68.2 °F 43.9 °F 41% 29.63 in 10.0 mi South 12.7 mph 20.7 mph N/A   Scattered Clouds
6:55 PM 68.2 °F 44.1 °F 42% 29.63 in 10.0 mi South 6.9 mph 16.1 mph N/A   Scattered Clouds
7:15 PM 67.6 °F 44.2 °F 43% 29.63 in 10.0 mi South 8.1 mph - N/A   Scattered Clouds
7:55 PM 68.2 °F 43.7 °F 41% 29.64 in 10.0 mi South 13.8 mph 18.4 mph N/A   Overcast
8:14 PM 68.0 °F 43.7 °F 41% 29.64 in 10.0 mi South 9.2 mph 16.1 mph N/A   Overcast
8:35 PM 68.4 °F 43.7 °F 41% 29.64 in 10.0 mi South 12.7 mph 21.9 mph N/A   Mostly Cloudy
8:54 PM 68.2 °F 43.9 °F 41% 29.64 in 10.0 mi South 12.7 mph 19.6 mph N/A   Mostly Cloudy
9:15 PM 68.2 °F 44.1 °F 42% 29.64 in 10.0 mi South 13.8 mph 19.6 mph N/A   Mostly Cloudy
9:35 PM 68.2 °F 44.8 °F 43% 29.65 in 10.0 mi SSW 13.8 mph 26.5 mph N/A   Mostly Cloudy
9:54 PM 67.1 °F 47.1 °F 49% 29.66 in 10.0 mi SSW 19.6 mph 25.3 mph N/A   Overcast
10:15 PM 62.1 °F 53.2 °F 73% 29.67 in 10.0 mi SSW 15.0 mph 25.3 mph N/A Rain Rain
10:35 PM 59.9 °F 55.0 °F 84% 29.67 in 7.0 mi SSW 10.4 mph 18.4 mph N/A Rain Rain
10:54 PM 59.0 °F 55.4 °F 88% 29.67 in 7.0 mi SSW 8.1 mph - N/A Rain Rain
11:15 PM 59.0 °F 55.6 °F 88% 29.65 in 5.0 mi South 6.9 mph - N/A Rain Rain
11:35 PM 58.5 °F 55.6 °F 90% 29.63 in 2.5 mi Calm Calm - N/A Rain Heavy Rain
11:55 PM 58.3 °F 55.9 °F 92% 29.62 in 5.0 mi East 3.5 mph - N/A Rain Light Rain